AAL725 KCLT-EIDW

Flight info

Callsign AAL725
Flight time N/A
Altitude 37000
Route BARMY5 TYI Q64 SAWED Q97 ZJAAY Q167 RIFLE DCT ACK DCT BRADD N175G PORTI/M084F400 DCT 47N050W 49N040W 51N030W 53N020W DCT MALOT DCT GISTI/N0485F410 DCT MOMIN DCT OSGAR OSGAR4L
Aircraft B772/H-SDE2E3FGHIJ5LORVWXY/LB1D1

Departure

Time N/A
Airport Charlotte Douglas International Airport (KCLT)

Arrival

Time 2026-05-05 15:54
Airport Dublin Airport (EIDW)
Time Latitude Longitude Altitude Speed Heading
2026-05-05 15:38 53.02716 -6.97475 18818 ft 413 kts 97°
2026-05-05 15:38 53.02351 -6.92736 18071 ft 415 kts 97°
2026-05-05 15:38 53.01985 -6.87991 17506 ft 412 kts 97°
2026-05-05 15:38 53.01620 -6.83296 16973 ft 408 kts 97°
2026-05-05 15:39 53.01258 -6.78660 16436 ft 404 kts 97°
2026-05-05 15:39 53.01063 -6.74050 15893 ft 399 kts 88°
2026-05-05 15:39 53.01373 -6.69505 15351 ft 394 kts 77°
2026-05-05 15:39 53.02175 -6.65224 14822 ft 389 kts 65°
2026-05-05 15:40 53.03426 -6.61321 14283 ft 383 kts 55°
2026-05-05 15:40 53.05071 -6.57883 13733 ft 378 kts 46°
2026-05-05 15:40 53.06852 -6.54720 13213 ft 374 kts 45°
2026-05-05 15:40 53.08636 -6.51585 12680 ft 371 kts 45°
2026-05-05 15:41 53.10414 -6.48466 12113 ft 368 kts 45°
2026-05-05 15:41 53.12171 -6.45384 11562 ft 365 kts 45°
2026-05-05 15:41 53.13907 -6.42338 11062 ft 361 kts 45°
2026-05-05 15:41 53.15420 -6.39083 10670 ft 355 kts 58°
2026-05-05 15:42 53.16300 -6.35290 10572 ft 342 kts 76°
2026-05-05 15:42 53.16518 -6.31426 10504 ft 329 kts 88°
2026-05-05 15:42 53.16509 -6.27713 10412 ft 318 kts 90°
2026-05-05 15:42 53.16423 -6.24093 10277 ft 308 kts 92°
2026-05-05 15:43 53.16282 -6.20616 10170 ft 298 kts 93°
2026-05-05 15:43 53.16117 -6.17218 10046 ft 290 kts 94°
2026-05-05 15:43 53.15947 -6.13906 9797 ft 286 kts 94°
2026-05-05 15:43 53.15773 -6.10594 9449 ft 286 kts 93°
2026-05-05 15:44 53.15598 -6.07304 9128 ft 286 kts 93°
2026-05-05 15:44 53.15424 -6.04042 8836 ft 284 kts 93°
2026-05-05 15:44 53.15247 -6.00733 8527 ft 284 kts 93°
2026-05-05 15:44 53.15085 -5.97479 8162 ft 284 kts 89°
2026-05-05 15:45 53.15460 -5.94262 7610 ft 285 kts 62°
2026-05-05 15:45 53.16639 -5.91800 7535 ft 267 kts 36°
2026-05-05 15:45 53.18244 -5.90431 7442 ft 254 kts 18°
2026-05-05 15:45 53.19962 -5.89506 6829 ft 266 kts 16°
2026-05-05 15:46 53.21729 -5.88589 6367 ft 269 kts 16°
2026-05-05 15:46 53.23483 -5.87679 6244 ft 259 kts 16°
2026-05-05 15:46 53.25228 -5.86774 5739 ft 265 kts 16°
2026-05-05 15:46 53.26941 -5.85884 5624 ft 256 kts 16°
2026-05-05 15:47 53.28666 -5.84987 5118 ft 262 kts 16°
2026-05-05 15:47 53.30389 -5.84091 4983 ft 253 kts 16°
2026-05-05 15:47 53.32064 -5.83409 4717 ft 248 kts
2026-05-05 15:47 53.33721 -5.84002 4518 ft 242 kts 333°
2026-05-05 15:48 53.35076 -5.85642 4243 ft 242 kts 320°
2026-05-05 15:48 53.36280 -5.87576 4000 ft 239 kts 316°
2026-05-05 15:48 53.37417 -5.89535 3929 ft 229 kts 316°
2026-05-05 15:48 53.38497 -5.91414 3879 ft 219 kts 316°
2026-05-05 15:49 53.39536 -5.93229 3798 ft 211 kts 314°
2026-05-05 15:49 53.40251 -5.95289 3737 ft 202 kts 291°
2026-05-05 15:49 53.40514 -5.97581 3469 ft 199 kts 280°
2026-05-05 15:49 53.40633 -5.99842 3225 ft 194 kts 278°
2026-05-05 15:50 53.40741 -6.02090 2965 ft 190 kts 278°
2026-05-05 15:50 53.40857 -6.04263 2726 ft 182 kts 278°
2026-05-05 15:50 53.40973 -6.06322 2494 ft 175 kts 279°
2026-05-05 15:50 53.41084 -6.08291 2272 ft 162 kts 279°
2026-05-05 15:51 53.41184 -6.10080 2064 ft 150 kts 279°
2026-05-05 15:51 53.41280 -6.11772 1871 ft 141 kts 279°
2026-05-05 15:51 53.41369 -6.13360 1688 ft 132 kts 279°
2026-05-05 15:51 53.41458 -6.14919 1509 ft 139 kts 278°
2026-05-05 15:52 53.41547 -6.16525 1308 ft 135 kts 278°
2026-05-05 15:52 53.41635 -6.18081 1120 ft 137 kts 278°
2026-05-05 15:52 53.41649 -6.18319 1094 ft 136 kts 278°
2026-05-05 15:52 53.41705 -6.19324 976 ft 138 kts 277°
2026-05-05 15:53 53.41787 -6.20922 793 ft 138 kts 276°
2026-05-05 15:53 53.41876 -6.22504 594 ft 138 kts 277°
2026-05-05 15:53 53.41969 -6.24091 403 ft 135 kts 277°
2026-05-05 15:53 53.42063 -6.25673 257 ft 131 kts 275°
2026-05-05 15:54 53.42120 -6.26769 256 ft 85 kts 276°
2026-05-05 15:54 53.42159 -6.27454 256 ft 36 kts 276°
2026-05-05 15:54 53.42204 -6.27833 256 ft 31 kts 291°
2026-05-05 15:54 53.42271 -6.28050 256 ft 11 kts 300°
2026-05-05 15:55 53.42331 -6.28132 256 ft 9 kts 359°
2026-05-05 15:55 53.42361 -6.28050 256 ft 10 kts 91°
2026-05-05 15:55 53.42355 -6.27914 256 ft 12 kts 95°
2026-05-05 15:55 53.42347 -6.27754 256 ft 15 kts 95°
2026-05-05 15:56 53.42336 -6.27543 256 ft 20 kts 95°
2026-05-05 15:56 53.42321 -6.27284 256 ft 23 kts 95°
2026-05-05 15:56 53.42307 -6.27005 256 ft 24 kts 96°
2026-05-05 15:56 53.42291 -6.26720 256 ft 24 kts 95°
2026-05-05 15:57 53.42277 -6.26429 256 ft 25 kts 95°
2026-05-05 15:57 53.42258 -6.26140 256 ft 25 kts 95°
2026-05-05 15:57 53.42242 -6.25844 256 ft 25 kts 95°
2026-05-05 15:57 53.42226 -6.25544 256 ft 25 kts 95°
2026-05-05 15:58 53.42210 -6.25253 256 ft 25 kts 95°
2026-05-05 15:58 53.42213 -6.25056 256 ft 14 kts 70°
2026-05-05 15:58 53.42279 -6.24915 256 ft 16 kts 46°
2026-05-05 15:58 53.42358 -6.24777 256 ft 13 kts 46°
2026-05-05 15:59 53.42406 -6.24679 256 ft 11 kts 58°
2026-05-05 15:59 53.42435 -6.24590 256 ft 6 kts 63°
2026-05-05 15:59 53.42433 -6.24536 256 ft 5 kts 126°
2026-05-05 15:59 53.42400 -6.24479 256 ft 6 kts 135°
2026-05-05 16:00 53.42388 -6.24459 256 ft 0 kts 136°
2026-05-05 16:00 53.42387 -6.24458 256 ft 0 kts 136°